Lid_Strength_Index
9 12 14 12 11 11 11 12 13 13 12 12 13 12 10 9 10 11 11 11 11 10 6 5 3 3 4 4 3 2 1 1 1 2 2 2 2 1 1 1 1 1 1 2
12 14 10 9 10 11 12 13 14 12 12 13 15 13 11 11 10 9 9 10 10 9 9 9 5 5 4 4 3 2 1 1 1 1 2 2 2 2 1 1 0 -0 -0 -0
13 11 9 10 11 12 12 13 14 13 12 13 16 17 15 12 12 10 9 9 9 9 9 9 9 10 8 7 5 3 2 2 1 1 1 3 3 3 3 2 1 1 -0 -0
11 9 10 11 12 11 14 11 12 13 15 17 14 20 17 15 14 13 13 11 10 10 11 11 11 11 11 10 10 7 5 3 2 1 1 2 2 3 3 2 2 2 1 1
13 12 12 13 12 10 12 11 12 13 15 16 17 18 17 15 15 14 13 12 12 11 12 12 12 11 11 11 11 11 10 8 6 3 2 2 2 2 3 3 3 2 2 2
12 10 11 11 11 11 11 12 14 15 16 20 16 16 18 15 14 14 15 15 13 13 12 11 10 8 9 11 10 10 10 9 8 7 4 2 2 3 3 3 3 3 3 2
14 13 11 10 12 11 12 16 22 23 23 23 18 17 16 14 13 14 13 13 13 14 13 11 11 10 10 9 8 7 7 7 8 8 6 4 3 3 3 3 3 4 3 3
18 19 12 11 12 13 14 16 20 25 23 21 17 19 16 13 12 12 12 12 12 12 11 11 11 11 10 9 9 7 6 5 5 7 8 6 4 3 3 3 4 4 3 3
17 17 11 10 10 10 13 15 14 17 23 20 18 16 13 12 12 12 12 12 12 11 10 11 11 11 11 10 10 9 7 5 5 5 6 6 6 6 4 3 3 3 3 3
13 16 12 11 9 10 12 11 17 18 24 24 19 18 17 14 13 12 12 12 11 10 10 10 10 10 11 11 11 10 10 9 8 7 6 6 6 5 5 5 5 5 6 5
12 14 15 11 13 14 13 14 14 15 16 20 21 18 14 13 12 12 11 11 10 9 9 10 10 10 10 10 10 10 10 9 9 9 9 8 8 8 8 8 8 7 7 7
11 13 18 15 12 10 11 12 13 17 17 17 17 18 12 12 11 11 11 10 10 9 9 9 9 9 10 10 10 10 9 9 9 9 9 8 8 8 8 8 8 8 9 8
9 15 20 17 14 12 13 12 11 13 14 16 18 17 11 12 12 11 11 11 9 10 10 9 9 9 9 9 9 9 9 9 8 8 8 8 8 8 8 8 8 8 8 8
8 12 15 18 16 13 14 13 12 12 17 16 16 15 14 12 11 11 11 10 10 9 9 9 9 9 9 8 8 8 8 8 8 7 7 7 7 7 7 7 7 7 8 8
10 15 13 13 12 12 13 13 12 13 13 15 14 13 12 11 11 10 9 9 9 9 9 9 9 9 8 8 8 8 8 8 8 7 7 7 7 7 7 7 7 7 8 8
9 16 13 15 12 12 14 12 12 13 13 12 13 13 10 10 10 12 11 10 10 10 9 9 9 8 8 8 8 8 8 7 8 8 8 7 7 7 8 8 8 9 9 9
11 13 17 17 13 14 18 14 13 13 12 12 14 11 10 11 10 10 10 9 9 8 8 8 8 7 7 7 7 7 7 8 8 8 8 8 8 8 8 8 9 9 9 10
12 13 14 17 16 20 15 12 11 12 12 11 11 11 10 9 9 8 8 8 8 8 8 8 8 8 7 7 7 7 7 7 8 8 8 8 9 9 9 9 9 9 10 10
9 12 16 17 20 16 14 13 13 13 13 10 10 10 10 9 10 9 8 7 7 8 7 7 7 7 7 7 7 7 8 8 9 9 9 9 9 9 10 10 10 10 10 10
10 11 13 23 24 23 14 12 10 11 16 10 10 10 10 10 13 11 9 8 8 7 7 7 7 7 8 8 9 9 10 10 10 10 10 10 10 10 10 9 10 10 10 10
14 13 16 20 19 18 13 12 10 17 14 10 10 10 11 11 10 9 8 8 8 7 7 7 7 7 8 9 10 10 10 10 11 11 11 10 10 10 10 10 10 10 10 11
15 16 16 17 17 18 11 11 13 11 10 10 10 10 10 10 9 9 9 8 8 8 7 8 8 9 9 10 10 10 10 10 12 12 12 12 12 11 11 12 12 12 11 13
16 14 16 14 14 10 10 10 9 9 10 10 11 10 10 10 10 9 9 9 8 8 8 8 9 9 9 10 11 11 11 12 13 14 14 14 13 12 12 13 12 13 13 13
12 11 13 13 12 11 10 9 9 8 9 8 9 9 9 10 9 9 9 9 9 8 8 10 11 11 12 15 15 16 15 15 17 16 15 15 15 14 13 13 13 14 15 15
11 11 13 13 12 11 10 10 9 8 8 9 9 9 9 9 9 9 9 9 8 8 9 11 12 12 14 15 17 19 17 18 16 15 15 15 15 17 16 14 14 13 13 13
11 12 13 13 10 10 10 9 8 9 9 9 9 9 9 9 8 9 9 9 11 11 13 13 14 15 17 18 19 20 21 20 19 16 16 16 16 16 15 16 16 11 11 10